timestamp,wind_dir_avg,wind_spd_max_dir,wind_spd_avg,wind_spd_gust,battery_voltage,lat,long
2017-12-15 00:00:00+00:00,212.0,202.0,14.28,16.0,,47.59359,-54.27349
2017-12-15 00:10:00+00:00,214.0,213.0,12.75,14.61,,47.59359,-54.27349
2017-12-15 00:20:00+00:00,216.0,214.0,13.81,16.21,,47.59359,-54.27349
2017-12-15 00:30:00+00:00,223.0,221.0,13.51,15.29,,47.59359,-54.27349
2017-12-15 00:40:00+00:00,223.0,227.0,12.58,14.64,,47.59359,-54.27349
2017-12-15 00:50:00+00:00,224.0,224.0,13.15,14.97,,47.59359,-54.27349
2017-12-15 01:00:00+00:00,218.0,216.0,10.15,12.29,,47.59359,-54.27349
2017-12-15 01:10:00+00:00,209.0,206.0,9.9,12.13,,47.59359,-54.27349
2017-12-15 01:20:00+00:00,208.0,209.0,10.54,12.42,,47.59359,-54.27349
2017-12-15 01:30:00+00:00,198.0,196.0,7.7,8.63,,47.59359,-54.27349
2017-12-15 01:40:00+00:00,189.0,194.0,5.77,7.02,,47.59359,-54.27349
2017-12-15 01:50:00+00:00,186.0,185.0,5.27,5.96,,47.59359,-54.27349
2017-12-15 02:00:00+00:00,198.0,198.0,3.52,4.07,,47.59359,-54.27349
2017-12-15 02:10:00+00:00,175.0,156.0,0.78,1.76,,47.59359,-54.27349
2017-12-15 02:20:00+00:00,4.0,353.0,2.61,3.9,,47.59359,-54.27349
2017-12-15 02:30:00+00:00,9.0,8.0,3.41,4.14,,47.59359,-54.27349
2017-12-15 02:40:00+00:00,33.0,32.0,5.33,5.85,,47.59359,-54.27349
2017-12-15 02:50:00+00:00,54.0,54.0,6.43,6.93,,47.59359,-54.27349
2017-12-15 03:00:00+00:00,43.0,45.0,5.87,6.48,,47.59359,-54.27349
2017-12-15 03:10:00+00:00,18.0,15.0,5.87,7.35,,47.59359,-54.27349
2017-12-15 03:20:00+00:00,12.0,16.0,5.77,6.5,,47.59359,-54.27349
2017-12-15 03:30:00+00:00,7.0,9.0,4.62,5.48,,47.59359,-54.27349
2017-12-15 03:40:00+00:00,337.0,337.0,5.41,6.64,,47.59359,-54.27349
2017-12-15 03:50:00+00:00,342.0,344.0,4.84,5.41,,47.59359,-54.27349
2017-12-15 04:00:00+00:00,350.0,345.0,3.98,4.33,,47.59359,-54.27349
2017-12-15 04:10:00+00:00,325.0,298.0,4.63,7.46,,47.59359,-54.27349
2017-12-15 04:20:00+00:00,327.0,332.0,4.36,5.13,,47.59359,-54.27349
2017-12-15 04:30:00+00:00,319.0,319.0,4.28,4.73,,47.59359,-54.27349
2017-12-15 04:40:00+00:00,309.0,311.0,4.14,4.98,,47.59359,-54.27349
2017-12-15 04:50:00+00:00,276.0,273.0,3.21,3.8,,47.59359,-54.27349
2017-12-15 05:00:00+00:00,292.0,302.0,4.22,4.81,,47.59359,-54.27349
2017-12-15 05:10:00+00:00,260.0,267.0,5.14,7.17,,47.59359,-54.27349
2017-12-15 05:20:00+00:00,262.0,263.0,7.52,8.27,,47.59359,-54.27349
2017-12-15 05:30:00+00:00,251.0,253.0,9.31,10.41,,47.59359,-54.27349
2017-12-15 05:40:00+00:00,255.0,259.0,8.94,11.88,,47.59359,-54.27349
2017-12-15 05:50:00+00:00,256.0,256.0,9.77,10.72,,47.59359,-54.27349
2017-12-15 06:00:00+00:00,252.0,251.0,10.4,11.9,,47.59359,-54.27349
2017-12-15 06:10:00+00:00,257.0,253.0,11.32,13.29,,47.59359,-54.27349
2017-12-15 06:20:00+00:00,257.0,255.0,10.86,11.92,,47.59359,-54.27349
2017-12-15 06:30:00+00:00,256.0,261.0,12.02,14.0,,47.59359,-54.27349
2017-12-15 06:40:00+00:00,251.0,252.0,11.41,13.27,,47.59359,-54.27349
2017-12-15 06:50:00+00:00,251.0,259.0,13.88,18.54,,47.59359,-54.27349
2017-12-15 07:00:00+00:00,251.0,249.0,13.61,15.86,,47.59359,-54.27349
2017-12-15 07:10:00+00:00,254.0,257.0,13.46,15.37,,47.59359,-54.27349
2017-12-15 07:20:00+00:00,256.0,259.0,12.88,16.38,,47.59359,-54.27349
2017-12-15 07:30:00+00:00,264.0,260.0,11.03,13.15,,47.59359,-54.27349
2017-12-15 07:40:00+00:00,262.0,257.0,12.17,14.64,,47.59359,-54.27349
2017-12-15 07:50:00+00:00,269.0,266.0,11.03,12.92,,47.59359,-54.27349
2017-12-15 08:00:00+00:00,269.0,274.0,11.24,13.24,,47.59359,-54.27349
2017-12-15 08:10:00+00:00,265.0,268.0,14.28,18.4,,47.59359,-54.27349
2017-12-15 08:20:00+00:00,263.0,264.0,13.15,15.54,,47.59359,-54.27349
2017-12-15 08:30:00+00:00,265.0,273.0,11.0,13.07,,47.59359,-54.27349
2017-12-15 08:40:00+00:00,259.0,263.0,13.47,15.51,,47.59359,-54.27349
2017-12-15 08:50:00+00:00,260.0,257.0,10.88,13.17,,47.59359,-54.27349
2017-12-15 09:00:00+00:00,259.0,261.0,11.47,13.54,,47.59359,-54.27349
2017-12-15 09:10:00+00:00,257.0,260.0,12.09,13.76,,47.59359,-54.27349
2017-12-15 09:20:00+00:00,261.0,262.0,13.64,17.4,,47.59359,-54.27349
2017-12-15 09:30:00+00:00,270.0,272.0,16.22,21.93,,47.59359,-54.27349
2017-12-15 09:40:00+00:00,267.0,267.0,13.5,16.03,,47.59359,-54.27349
2017-12-15 09:50:00+00:00,265.0,263.0,11.59,14.82,,47.59359,-54.27349
2017-12-15 10:00:00+00:00,264.0,263.0,12.88,15.57,,47.59359,-54.27349
2017-12-15 10:10:00+00:00,265.0,265.0,14.2,15.97,,47.59359,-54.27349
2017-12-15 10:20:00+00:00,269.0,273.0,14.96,17.59,,47.59359,-54.27349
2017-12-15 10:30:00+00:00,262.0,245.0,15.37,18.42,,47.59359,-54.27349
2017-12-15 10:40:00+00:00,266.0,264.0,15.68,20.44,,47.59359,-54.27349
2017-12-15 10:50:00+00:00,257.0,257.0,14.39,17.38,,47.59359,-54.27349
2017-12-15 11:00:00+00:00,257.0,257.0,13.29,15.43,,47.59359,-54.27349
2017-12-15 11:10:00+00:00,259.0,262.0,13.98,16.5,,47.59359,-54.27349
2017-12-15 11:20:00+00:00,260.0,262.0,15.49,18.25,,47.59359,-54.27349
2017-12-15 11:30:00+00:00,255.0,253.0,16.29,19.56,,47.59359,-54.27349
2017-12-15 11:40:00+00:00,261.0,258.0,14.3,16.45,,47.59359,-54.27349
2017-12-15 11:50:00+00:00,252.0,249.0,15.27,18.29,,47.59359,-54.27349
2017-12-15 12:00:00+00:00,259.0,263.0,15.39,17.94,,47.59359,-54.27349
2017-12-15 12:10:00+00:00,248.0,252.0,17.29,21.71,,47.59359,-54.27349
2017-12-15 12:20:00+00:00,258.0,259.0,17.6,20.36,,47.59359,-54.27349
2017-12-15 12:30:00+00:00,259.0,259.0,17.56,20.85,,47.59359,-54.27349
2017-12-15 12:40:00+00:00,263.0,265.0,17.9,23.69,,47.59359,-54.27349
2017-12-15 12:50:00+00:00,255.0,260.0,16.79,21.83,,47.59359,-54.27349
2017-12-15 13:00:00+00:00,256.0,255.0,18.22,21.4,,47.59359,-54.27349
2017-12-15 13:10:00+00:00,261.0,262.0,16.23,18.68,,47.59359,-54.27349
2017-12-15 13:20:00+00:00,264.0,271.0,17.19,23.18,,47.59359,-54.27349
2017-12-15 13:30:00+00:00,252.0,260.0,16.5,21.02,,47.59359,-54.27349
2017-12-15 13:40:00+00:00,258.0,256.0,17.45,21.83,,47.59359,-54.27349
2017-12-15 13:50:00+00:00,261.0,260.0,17.46,20.93,,47.59359,-54.27349
2017-12-15 14:00:00+00:00,260.0,267.0,16.86,20.11,,47.59359,-54.27349
2017-12-15 14:10:00+00:00,256.0,262.0,18.28,21.98,,47.59359,-54.27349
2017-12-15 14:20:00+00:00,264.0,272.0,17.79,21.39,,47.59359,-54.27349
2017-12-15 14:30:00+00:00,259.0,254.0,17.66,22.86,,47.59359,-54.27349
2017-12-15 14:40:00+00:00,259.0,264.0,14.23,16.95,,47.59359,-54.27349
2017-12-15 14:50:00+00:00,262.0,269.0,17.6,22.0,,47.59359,-54.27349
2017-12-15 15:00:00+00:00,262.0,258.0,15.16,19.42,,47.59359,-54.27349
2017-12-15 15:10:00+00:00,249.0,250.0,19.63,25.67,,47.59359,-54.27349
2017-12-15 15:20:00+00:00,255.0,266.0,17.21,20.85,,47.59359,-54.27349
2017-12-15 15:30:00+00:00,255.0,259.0,18.57,23.66,,47.59359,-54.27349
2017-12-15 15:40:00+00:00,256.0,266.0,16.25,21.93,,47.59359,-54.27349
2017-12-15 15:50:00+00:00,257.0,265.0,18.05,24.91,,47.59359,-54.27349
2017-12-15 16:00:00+00:00,267.0,263.0,16.84,21.64,,47.59359,-54.27349
2017-12-15 16:10:00+00:00,258.0,259.0,18.28,24.22,,47.59359,-54.27349
2017-12-15 16:20:00+00:00,256.0,253.0,17.99,24.58,,47.59359,-54.27349
2017-12-15 16:30:00+00:00,258.0,262.0,17.17,21.76,,47.59359,-54.27349
2017-12-15 16:40:00+00:00,262.0,265.0,16.04,19.06,,47.59359,-54.27349
2017-12-15 16:50:00+00:00,268.0,269.0,14.84,16.99,,47.59359,-54.27349
2017-12-15 17:00:00+00:00,257.0,265.0,20.2,23.72,,47.59359,-54.27349
2017-12-15 17:10:00+00:00,263.0,261.0,22.33,25.4,,47.59359,-54.27349
2017-12-15 17:20:00+00:00,260.0,264.0,17.14,21.06,,47.59359,-54.27349
2017-12-15 17:30:00+00:00,265.0,273.0,20.29,24.32,,47.59359,-54.27349
2017-12-15 17:40:00+00:00,256.0,252.0,15.87,19.43,,47.59359,-54.27349
2017-12-15 17:50:00+00:00,260.0,259.0,16.01,20.8,,47.59359,-54.27349
2017-12-15 18:00:00+00:00,264.0,254.0,15.39,17.82,,47.59359,-54.27349
2017-12-15 18:10:00+00:00,263.0,268.0,15.43,18.81,,47.59359,-54.27349
2017-12-15 18:20:00+00:00,257.0,250.0,16.41,21.38,,47.59359,-54.27349
2017-12-15 18:30:00+00:00,268.0,269.0,19.6,22.96,,47.59359,-54.27349
2017-12-15 18:40:00+00:00,257.0,252.0,17.4,19.3,,47.59359,-54.27349
2017-12-15 18:50:00+00:00,265.0,268.0,18.49,22.35,,47.59359,-54.27349
2017-12-15 19:00:00+00:00,258.0,260.0,17.12,21.96,,47.59359,-54.27349
2017-12-15 19:10:00+00:00,259.0,259.0,14.8,16.9,,47.59359,-54.27349
2017-12-15 19:20:00+00:00,256.0,248.0,16.37,19.13,,47.59359,-54.27349
2017-12-15 19:30:00+00:00,263.0,269.0,18.79,23.33,,47.59359,-54.27349
2017-12-15 19:40:00+00:00,264.0,265.0,19.11,22.63,,47.59359,-54.27349
2017-12-15 19:50:00+00:00,263.0,265.0,19.47,24.14,,47.59359,-54.27349
2017-12-15 20:00:00+00:00,255.0,264.0,15.07,18.52,,47.59359,-54.27349
2017-12-15 20:10:00+00:00,254.0,256.0,17.49,21.62,,47.59359,-54.27349
2017-12-15 20:20:00+00:00,258.0,257.0,17.84,22.31,,47.59359,-54.27349
2017-12-15 20:30:00+00:00,260.0,266.0,16.03,18.18,,47.59359,-54.27349
2017-12-15 20:40:00+00:00,253.0,252.0,17.93,23.24,,47.59359,-54.27349
2017-12-15 20:50:00+00:00,252.0,254.0,17.64,22.69,,47.59359,-54.27349
2017-12-15 21:00:00+00:00,257.0,260.0,18.28,23.33,,47.59359,-54.27349
2017-12-15 21:10:00+00:00,259.0,262.0,16.47,21.51,,47.59359,-54.27349
2017-12-15 21:20:00+00:00,256.0,254.0,15.09,17.11,,47.59359,-54.27349
2017-12-15 21:30:00+00:00,259.0,257.0,14.64,18.54,,47.59359,-54.27349
2017-12-15 21:40:00+00:00,255.0,265.0,15.8,17.95,,47.59359,-54.27349
2017-12-15 21:50:00+00:00,260.0,252.0,15.09,17.1,,47.59359,-54.27349
2017-12-15 22:00:00+00:00,260.0,255.0,16.07,19.42,,47.59359,-54.27349
2017-12-15 22:10:00+00:00,251.0,251.0,14.75,17.86,,47.59359,-54.27349
2017-12-15 22:20:00+00:00,252.0,248.0,15.03,18.5,,47.59359,-54.27349
2017-12-15 22:30:00+00:00,256.0,246.0,14.69,17.26,,47.59359,-54.27349
2017-12-15 22:40:00+00:00,259.0,262.0,14.44,16.31,,47.59359,-54.27349
2017-12-15 22:50:00+00:00,248.0,252.0,15.51,17.95,,47.59359,-54.27349
2017-12-15 23:00:00+00:00,258.0,255.0,15.67,17.45,,47.59359,-54.27349
2017-12-15 23:10:00+00:00,254.0,241.0,13.48,16.06,,47.59359,-54.27349
2017-12-15 23:20:00+00:00,254.0,258.0,13.77,17.09,,47.59359,-54.27349
2017-12-15 23:30:00+00:00,253.0,256.0,13.73,15.94,,47.59359,-54.27349
2017-12-15 23:40:00+00:00,254.0,241.0,14.94,17.85,,47.59359,-54.27349
2017-12-15 23:50:00+00:00,254.0,251.0,12.81,15.11,,47.59359,-54.27349
